Location: Grieser Field
(39.7333°N, 81.7975°W)
Time: 17:21:43
(UTC-04:00)

MOS 1-B - Visible Passes

Search period start: 27 May 2018 00:00
Search period end: 06 June 2018 00:00
Orbit: 906 x 913 km, 99.3° (Epoch: 27 May)

Date Brightness Start Highest point End Pass type
(mag) Time Alt. Az. Time Alt. Az. Time Alt. Az.
27 May 5.3 05:00:40 10° NNE 05:06:18 49° E 05:11:52 10° S visible
28 May 5.1 05:06:00 10° NNE 05:11:42 54° E 05:17:21 10° S visible
29 May 4.9 05:11:22 10° NNE 05:17:08 60° ESE 05:22:50 10° S visible
30 May 4.8 05:16:44 10° NNE 05:22:32 67° ESE 05:28:17 10° S visible
31 May 4.6 05:22:07 10° NNE 05:27:56 74° ESE 05:33:43 10° S visible
02 Jun 7.0 03:54:25 10° ENE 03:56:11 11° E 03:57:56 10° ESE visible
03 Jun 6.9 03:59:07 10° ENE 04:01:40 13° E 04:04:12 10° ESE visible
04 Jun 6.8 04:04:02 10° ENE 04:07:07 15° E 04:10:13 10° ESE visible
05 Jun 6.7 04:09:02 10° NE 04:12:35 16° E 04:16:07 10° SE visible
